Craig, CO

12:52 PM MST on February 24, 2017 (GMT -0700)
Craig-Moffat

Weather History for KCAG - January, 2014

Change the Weather History Date:

Saturday, January 25, 2014

  Actual Average Record
Temperature  
Mean Temperature 13 °F 17 °F  
Max Temperature 29 °F 30 °F 44 °F (2005)
Min Temperature -4 °F 3 °F -9 °F (1997)
Degree Days  
Heating Degree Days 52 48  
Month to date heating degree days 1275 1239  
Since 1 July heating degree days 4808 4795  
Cooling Degree Days 0 0  
Month to date cooling degree days 0 0  
Year to date cooling degree days 0 0  
Moisture  
Dew Point 2 °F    
Average Humidity 69    
Maximum Humidity 87    
Minimum Humidity 50    
Precipitation  
Precipitation 0.00 in 0.03 in 0.34 in (2009)
Month to date precipitation 0.69 0.69  
Year to date precipitation 0.69 0.69  
Sea Level Pressure  
Sea Level Pressure 30.56 in    
Wind  
Wind Speed 2 mph (WSW)    
Max Wind Speed 8 mph    
Max Gust Speed 9 mph    
Visibility 10 miles    
Events      
T = Trace of Precipitation, MM = Missing Value Source: NWS Daily Summary

Daily Weather History Graph

Daily Weather History Graph

Search for Another Location

Airport or City:

Trip Planner

Search our weather history database for the weather conditions in past years. The results will help you decide how hot, cold, wet, or windy it might be!

Date:

Astronomy

Jan. 25, 2014 Rise Set
Actual Time 7:25 AM MST 5:19 PM MST
Civil Twilight 6:56 AM MST 5:49 PM MST
Nautical Twilight 6:23 AM MST 6:22 PM MST
Astronomical Twilight 5:50 AM MST 6:54 PM MST
Moon 2:00 AM MST (1/25) 12:22 PM MST (1/25)
Length of Visible Light 10h 52m
Length of Day
9h 54m
Waning Crescent, 33% of the Moon is Illuminated
Jan 25
Waning Crescent
Jan 30
New
Feb 6
First Quarter
Feb 14
Full
Feb 22
Last Quarter

Hourly Weather History & Observations

Time (MST) Temp. Windchill Dew Point Humidity Pressure Visibility Wind Dir Wind Speed Gust Speed Precip Events Conditions
12:53 AM 1.0 °F - -5.1 °F 75% 30.70 in 10.0 mi Calm Calm - N/A   Clear
1:53 AM 3.9 °F -3.4 °F -2.9 °F 73% 30.65 in 10.0 mi West 3.5 mph - N/A   Clear
2:53 AM -0.9 °F - -6.0 °F 79% 30.66 in 10.0 mi Calm Calm - N/A   Clear
3:53 AM -0.9 °F -8.9 °F -8.0 °F 72% 30.65 in 10.0 mi SSW 3.5 mph - N/A   Clear
4:53 AM 1.0 °F -8.7 °F -5.1 °F 75% 30.66 in 10.0 mi West 4.6 mph - N/A   Clear
5:53 AM -0.0 °F - -7.1 °F 72% 30.68 in 10.0 mi Calm Calm - N/A   Clear
6:53 AM -2.0 °F -10.1 °F -7.1 °F 79% 30.71 in 10.0 mi WNW 3.5 mph - N/A   Clear
7:53 AM -2.0 °F - -7.1 °F 79% 30.71 in 10.0 mi Calm Calm - N/A   Clear
8:53 AM 3.0 °F - -2.0 °F 80% 30.68 in 10.0 mi Calm Calm - N/A   Clear
9:53 AM 8.1 °F 1.4 °F -0.0 °F 70% 30.66 in 10.0 mi WNW 3.5 mph - N/A   Clear
10:53 AM 14.0 °F 6.5 °F 3.9 °F 64% 30.62 in 10.0 mi SSW 4.6 mph - N/A   Clear
11:53 AM 18.0 °F 9.8 °F 7.0 °F 62% 30.57 in 10.0 mi SW 5.8 mph - N/A   Clear
12:53 PM 23.0 °F 18.4 °F 10.0 °F 58% 30.51 in 10.0 mi SW 3.5 mph - N/A   Clear
1:53 PM 26.1 °F - 10.0 °F 51% 30.45 in 10.0 mi Calm Calm - N/A   Clear
2:53 PM 28.0 °F - 12.9 °F 53% 30.44 in 10.0 mi Calm Calm - N/A   Clear
3:53 PM 28.0 °F - 14.0 °F 56% 30.43 in 10.0 mi Calm Calm - N/A   Clear
4:53 PM 24.1 °F - 12.0 °F 60% 30.42 in 10.0 mi Calm Calm - N/A   Clear
5:53 PM 12.9 °F - 7.0 °F 77% 30.46 in 10.0 mi Calm Calm - N/A   Clear
6:53 PM 12.9 °F - 7.0 °F 77% 30.47 in 10.0 mi Calm Calm - N/A   Clear
7:53 PM 9.0 °F - 5.0 °F 84% 30.48 in 10.0 mi Calm Calm - N/A   Clear
8:53 PM 7.0 °F - 1.9 °F 80% 30.47 in 10.0 mi Calm Calm - N/A   Clear
9:53 PM 5.0 °F - 1.0 °F 84% 30.45 in 10.0 mi Calm Calm - N/A   Clear
10:53 PM 3.9 °F -3.4 °F -0.0 °F 84% 30.44 in 10.0 mi West 3.5 mph - N/A   Clear
11:53 PM 1.9 °F - -2.0 °F 83% 30.43 in 10.0 mi Calm Calm - N/A   Clear